Weather in Severnoe

Russia / Novosibirsk Oblast     56°21′03″N   78°22′09″E
temp.,
°C
wind,
m/s
gust,
m/s
humid.,
%
clouds,
%
prec.,
mm/h
press.,
hPa
HPBL,
m
28 february, sun
sun2801:00−30ssw349963 0.0 103554
04:00−31s349974 0.0 103434
07:00−31sse349962 0.0 103438
10:00−30se489879 0.0 1032138
13:00−24se479586 0.0 1030259
16:00−20ese5893100 0.0 1027330
19:00−20ese5994100 0.0 1024330
22:00−20e5109697 0.1 1022309
1 march, mon
mon101:00−20e599698 0.1 1019252
04:00−18e61196100 0.1 1016272
07:00−17ene71195100 0.4 1013326
10:00−16ene71294100 0.3 1011339
13:00−14ene71193100 0.4 1010396
16:00−13ne61194100 0.4 1009438
19:00−13ne61193100 0.8 1011471
22:00−14ne5109497 0.2 1012408
2 march, tue
tue201:00−17nne489697 0.3 1014228
04:00−19nne369793 0.1 1016152
07:00−20ne239895 0.2 101762
10:00−19ene239792 0.1 1017126
13:00−16ese229096 0.2 1017309
16:00−13se2389100 0.3 1016391
19:00−14se2296100 0.4 101647
22:00−15ese2396100 0.1 101651
3 march, wed
wed301:00−17se229792 0.2 101626
04:00−16ese129786 0.1 101521
07:00−16e129691 0.2 101623
10:00−15ese119681 0.1 101673
13:00−13s118885 0.1 1017365
16:00−11ssw2286100 0.1 1017485
19:00−14ssw2394100 0.1 101933
22:00−18s349885 0.0 102038
4 march, thu
thu401:00−19s459978 0.0 102082
04:00−19sse489895 0.0 1019169
07:00−18sse499597 0.0 1020255
10:00−16sse61094100 0.0 1018333
13:00−13sse61192100 0.0 1017431
16:00−10sse61191100 0.0 1015444
19:00−11sse61292100 0.0 1014400
22:00−12sse6129398 0.0 1012331